GFSFLT2_850_spd_132.txt.gz
Wind_Speed
3 8 12 15 10 16 7 7 12 4 7 6 14 10 7 9 18 25 32 22 26 33 33 31 33 28 25 21 16 14 17 19
8 5 13 12 3 7 4 5 18 8 3 1 15 4 12 9 14 11 19 27 24 35 32 32 30 29 25 21 18 14 18 19
3 1 14 7 5 9 7 6 5 1 1 9 12 24 10 4 6 13 22 30 27 19 32 32 28 30 27 24 21 19 18 21
4 4 13 10 6 18 11 2 2 4 4 11 9 4 11 5 3 5 9 19 14 20 20 32 29 30 29 28 26 20 20 20
11 7 22 3 5 8 9 6 6 4 3 2 29 11 15 10 10 5 12 8 9 10 13 31 29 27 31 31 29 24 22 20
10 2 7 4 14 6 2 6 6 9 8 12 6 6 8 14 13 14 12 11 11 14 21 24 27 23 19 25 24 25 23 21
16 2 11 8 8 14 5 11 11 6 11 10 14 15 5 4 7 14 17 15 6 14 7 8 9 11 14 12 17 22 21 22
12 15 16 11 11 12 17 6 2 27 1 11 19 8 1 1 3 7 11 14 13 5 5 19 10 14 11 19 12 22 24 20
13 12 8 9 8 8 11 17 20 9 6 6 15 19 1 2 5 4 7 10 11 14 17 18 20 21 15 16 16 17 23 25
10 13 13 6 2 10 10 7 2 11 16 14 15 6 2 3 6 6 4 8 8 9 13 10 11 19 16 15 15 14 18 18
10 11 13 16 12 6 11 10 13 14 18 20 23 18 8 5 2 5 7 7 7 6 9 12 13 14 14 10 6 7 8 10
9 11 13 8 9 7 6 6 21 18 16 12 8 4 6 12 10 5 6 8 5 3 4 5 13 14 11 10 11 6 7 8
9 9 10 9 7 4 6 4 14 12 10 15 9 13 19 15 13 9 8 9 6 5 7 5 8 13 13 15 16 10 6 8
8 11 11 13 5 4 6 6 9 5 7 14 22 15 7 8 11 11 9 8 7 9 8 8 8 8 9 7 12 12 12 11
8 6 10 5 6 4 4 7 7 3 8 10 8 9 9 5 8 9 7 8 7 11 9 7 7 7 7 9 10 11 9 8
9 12 12 12 12 6 7 9 8 5 4 7 15 12 12 9 11 7 8 8 8 10 10 10 8 8 6 5 4 4 5 6
9 10 17 18 19 13 12 6 8 9 8 7 10 13 10 8 8 7 7 8 8 9 8 12 9 9 9 8 7 7 6 6
9 13 7 10 10 9 11 10 5 9 9 10 8 12 9 8 7 9 9 8 8 7 9 9 9 8 8 9 10 10 10 10
15 18 19 16 8 15 9 22 7 7 7 7 8 10 11 10 11 11 9 8 9 9 8 10 11 8 7 9 9 10 10 12

GFSFLT2_850_spd_135.txt.gz
Wind_Speed
7 5 6 5 5 8 6 2 2 1 3 4 7 8 18 26 23 27 23 25 25 35 36 43 39 35 29 24 22 14 18 23
5 6 12 8 3 6 4 2 3 2 2 4 11 12 10 18 21 32 34 6 30 34 41 44 40 36 30 25 22 17 14 21
1 7 5 6 3 4 3 4 3 2 2 4 5 10 12 21 11 25 28 24 15 16 28 40 42 38 33 28 25 21 14 19
16 12 8 4 2 4 4 3 3 3 5 7 4 13 23 30 14 22 34 39 18 9 16 22 45 42 36 31 27 21 14 15
3 2 2 2 3 5 4 2 6 5 4 9 12 11 40 3 4 7 19 24 16 14 6 14 24 41 40 34 28 20 15 15
5 4 4 3 6 6 5 2 5 5 5 8 8 10 21 25 7 7 9 8 14 19 10 6 9 22 37 36 30 23 19 19
10 8 6 8 9 11 7 6 6 3 4 4 5 10 22 14 9 9 6 4 14 18 19 9 8 6 18 37 32 28 27 27
6 9 7 6 13 13 12 4 2 4 5 6 6 10 10 12 7 8 8 3 6 11 23 13 23 21 19 28 31 23 25 35
5 8 8 6 3 1 8 8 6 3 3 9 6 4 13 14 8 1 3 4 8 10 11 11 12 18 28 15 23 29 31 28
4 7 5 8 7 3 13 7 4 4 4 9 7 9 13 7 9 3 2 5 12 16 15 17 19 26 23 21 20 18 25 21
3 4 8 10 8 6 8 8 8 8 7 6 12 12 8 7 4 3 2 3 6 10 17 18 18 12 9 7 18 17 16 15
1 3 4 1 8 10 5 4 12 16 13 11 6 3 2 5 6 5 3 2 5 6 8 13 14 9 6 4 10 7 3 3
4 4 4 6 11 7 3 3 18 17 15 17 6 7 16 12 6 3 0 1 5 7 4 3 8 13 11 8 9 7 6 6
1 3 3 6 9 5 4 10 17 20 21 18 21 22 17 11 8 2 6 2 2 2 2 1 1 9 10 13 13 12 12 11
4 4 6 7 7 6 7 4 9 22 26 25 25 24 16 17 14 15 10 6 3 3 3 1 3 5 8 9 11 9 10 7
2 2 6 6 4 7 8 7 5 3 24 24 21 18 20 20 18 17 11 7 4 2 4 4 4 6 6 6 6 9 7 8
3 7 6 8 4 2 5 10 9 2 16 19 27 22 23 23 17 14 12 10 7 4 4 6 4 8 8 8 10 9 9 8
3 1 3 4 3 2 4 4 7 6 10 21 18 24 22 20 21 15 13 11 10 8 6 5 5 7 10 9 8 9 10 10
4 10 8 11 8 6 6 7 13 17 6 25 26 25 19 17 12 16 12 12 11 11 10 8 9 8 6 9 11 11 11 10

GFSFLT2_850_spd_138.txt.gz
Wind_Speed
3 4 5 2 5 4 6 4 2 3 4 3 6 9 16 16 16 18 18 12 21 26 36 45 42 39 32 29 31 28 25 29
2 9 12 7 2 3 4 3 2 3 1 4 7 7 9 16 22 29 20 20 13 16 34 46 42 40 35 29 28 26 25 28
5 5 3 4 3 6 5 4 5 1 5 5 2 6 7 16 29 35 22 17 15 10 19 44 46 42 39 33 30 30 25 25
2 5 4 5 5 5 4 3 1 4 5 4 2 6 14 15 22 27 15 13 11 8 15 34 41 44 41 36 32 30 26 24
7 7 3 3 3 4 5 3 5 5 4 3 4 7 10 10 15 20 17 9 15 12 9 24 31 39 44 43 35 32 27 22
6 7 4 3 5 5 6 3 3 4 3 5 6 8 11 3 5 5 6 4 12 13 13 15 24 26 39 43 41 34 30 25
5 6 5 2 5 7 8 6 5 3 8 11 13 12 12 8 4 3 3 2 7 13 10 9 5 23 28 38 36 38 33 29
5 7 4 5 10 12 10 5 5 4 1 3 2 10 13 13 9 6 2 2 3 9 15 22 7 4 15 17 37 37 35 30
3 5 6 5 5 4 4 5 8 5 5 8 5 6 9 11 8 9 7 5 6 10 9 13 23 27 5 9 17 35 22 33
3 4 1 7 8 5 10 6 3 8 4 7 12 11 10 4 3 4 5 4 6 6 9 7 3 8 16 10 13 24 34 27
4 3 5 8 1 3 8 3 1 8 9 14 19 13 6 6 5 4 5 2 3 8 12 13 9 7 3 6 11 13 28 33
3 3 3 5 3 23 10 2 5 11 14 17 13 2 4 14 9 9 8 6 4 4 10 15 14 7 3 5 7 11 24 31
2 3 6 5 8 4 5 7 12 12 15 22 6 14 11 14 11 9 9 6 4 4 4 8 9 8 9 7 6 8 17 14
2 2 5 4 4 5 6 13 19 20 18 21 21 14 18 15 12 10 6 4 2 2 3 3 5 8 12 9 10 6 6 6
6 6 7 6 10 16 19 22 25 21 20 20 21 22 22 19 15 10 7 3 1 1 3 4 5 7 9 10 11 11 13 8
3 5 4 9 12 15 19 16 16 16 19 19 20 21 19 15 15 14 9 6 3 1 2 3 6 7 8 9 11 10 6 6
2 4 7 6 3 8 9 8 14 15 18 22 18 16 11 14 17 12 8 5 3 1 1 1 2 6 7 8 8 7 8 8
4 3 2 1 3 5 9 13 12 13 19 19 16 17 10 14 17 12 9 6 6 4 3 2 3 5 6 6 7 7 9 10
6 5 4 4 8 9 11 11 9 7 13 17 18 15 14 20 18 15 10 10 8 6 4 2 4 5 7 8 8 7 7 10

GFSFLT2_850_spd_141.txt.gz
Wind_Speed
6 3 4 3 4 4 7 3 2 3 5 4 5 7 8 11 14 8 9 18 26 25 33 37 42 40 37 32 30 33 31 28
3 4 10 5 5 3 3 3 3 4 4 4 3 3 4 5 11 14 10 19 20 28 30 32 36 41 40 36 30 28 32 30
3 3 2 1 2 6 5 4 5 2 5 5 5 4 4 6 10 14 17 4 18 17 22 34 33 36 42 42 34 30 30 32
3 2 0 2 4 5 5 3 1 3 5 2 5 11 8 4 11 14 12 7 12 17 15 26 33 39 42 46 38 33 30 29
7 6 2 2 3 4 6 3 4 5 5 2 7 15 12 11 3 10 5 7 7 13 13 18 30 36 39 41 40 37 33 32
7 6 3 3 4 4 5 4 4 5 4 4 8 8 3 6 1 9 3 4 12 16 18 13 20 28 33 38 44 43 39 34
4 5 2 4 5 8 8 5 5 4 7 7 10 4 11 1 2 4 3 2 9 13 13 19 18 24 33 33 37 40 37 36
5 4 3 3 3 9 5 5 3 4 6 7 8 10 14 11 6 2 3 3 7 17 12 10 12 17 26 26 27 36 39 38
3 2 3 4 3 4 4 5 7 5 8 5 3 7 9 9 7 3 5 8 7 11 16 15 18 15 12 18 17 13 30 35
3 3 2 7 6 7 5 5 4 4 3 4 2 7 10 10 12 7 5 7 8 7 12 12 12 16 19 23 22 23 19 28
4 3 5 4 4 2 5 2 2 5 5 6 7 1 14 13 12 7 5 4 5 7 9 10 10 6 3 9 14 17 28 30
3 4 4 6 5 9 4 2 4 8 9 10 8 1 5 8 9 5 2 1 3 4 9 12 10 9 7 8 8 10 16 23
3 3 6 6 6 2 2 7 10 14 19 18 6 14 9 12 6 4 2 1 2 5 4 6 13 11 10 7 3 5 4 12
3 3 3 9 5 6 6 12 15 15 15 19 17 16 13 10 6 3 2 2 3 3 2 2 2 7 9 7 7 6 8 8
7 6 4 8 5 6 15 20 18 18 17 16 15 16 17 10 9 5 4 1 4 5 3 2 3 5 4 8 8 9 7 8
3 2 3 6 4 11 18 17 18 16 15 18 17 16 17 15 12 10 7 3 2 5 4 1 1 4 7 9 11 13 9 11
1 3 2 4 6 8 18 17 18 21 20 21 21 17 17 20 15 13 12 8 3 3 3 3 1 3 3 4 6 7 6 12
4 7 4 4 6 7 10 11 13 20 22 22 22 19 17 18 15 16 15 11 6 4 2 1 3 3 4 4 5 5 8 11
5 9 6 6 11 13 14 13 16 19 19 18 21 21 21 20 16 17 15 12 9 6 5 4 4 6 5 6 6 6 8 10

GFSFLT2_850_spd_147.txt.gz
Wind_Speed
3 2 1 6 5 2 6 1 3 2 4 8 5 4 5 6 5 5 6 10 18 20 24 28 30 28 28 28 26 26 26 25
2 1 12 1 8 3 1 3 4 3 4 7 5 8 7 4 5 5 7 9 12 18 21 24 28 27 28 29 29 27 25 26
2 3 3 4 4 5 3 2 3 4 3 2 5 5 3 2 3 6 9 11 13 17 22 22 27 27 28 28 29 30 29 28
2 2 2 1 2 3 4 4 1 2 3 4 5 5 3 3 2 5 9 10 11 6 13 21 21 23 27 29 29 30 32 30
4 5 4 3 3 3 5 3 5 3 0 3 6 8 8 7 6 8 7 6 3 4 15 13 16 22 24 26 27 26 29 31
7 1 3 5 6 6 4 4 6 6 6 4 7 9 11 8 6 4 4 4 4 4 9 13 17 23 22 26 31 31 29 27
2 4 5 5 7 11 11 5 7 1 8 5 0 6 10 11 6 3 2 3 5 8 12 11 13 15 19 23 27 28 29 28
5 4 4 5 7 10 10 6 10 8 12 3 3 6 10 9 7 5 6 6 6 6 8 7 8 8 12 13 19 22 24 26
5 4 3 7 12 12 7 7 9 10 8 8 5 7 7 7 8 7 5 7 7 6 6 9 9 5 5 4 5 12 21 24
4 6 10 4 1 7 11 8 13 6 4 5 9 8 7 5 6 5 5 6 5 5 5 6 10 10 8 10 9 9 8 10
5 9 2 4 5 6 8 11 12 11 6 10 10 8 4 5 5 3 3 4 3 4 6 7 8 9 7 3 6 9 12 14
4 6 8 3 5 7 5 8 13 12 11 14 11 7 4 7 5 1 1 2 4 4 5 8 10 11 10 6 8 10 8 11
5 6 4 6 8 9 6 1 14 13 12 13 5 3 10 7 3 1 1 1 4 6 7 8 9 13 15 13 10 7 7 6
3 6 9 12 8 7 2 4 11 12 14 13 8 8 6 2 3 3 3 2 4 5 7 7 8 9 9 12 9 6 2 6
7 6 0 15 5 8 11 10 12 12 12 12 10 7 6 5 6 6 4 3 3 4 6 7 5 5 5 8 8 9 2 4
3 6 5 14 7 12 12 10 12 11 11 13 11 9 9 10 9 8 7 6 4 3 6 7 6 3 4 8 8 11 9 5
4 2 2 7 13 10 13 11 9 12 13 14 13 14 13 11 10 9 8 7 5 4 4 7 5 4 5 4 5 8 9 8
4 8 2 9 17 10 10 10 8 8 10 13 15 16 14 12 11 11 10 8 7 6 4 6 3 5 5 4 5 7 6 7
5 15 7 9 11 10 7 4 3 5 7 10 10 9 11 12 11 9 11 11 10 7 6 5 4 5 5 6 6 7 6 8